User: anonymous   Login
Location: *
(37.5724°S, 58.0067°E)
Time: 13:56:22
(UTC+00:00)
Language:

Cosmos 1933 Rocket - Orbit

View from above orbital plane
View from above orbital plane
View from above satellite
View from above satellite

Ground track
Ground track

The orbit data is extracted from the following two-line orbital elements,

1 18959U 88020B   20333.81289653  .00000123  00000-0  12040-4 0  9990
2 18959  82.5369 172.7761 0015545 302.2333  57.7375 14.83455873767466
Epoch (UTC): 28 November 2020 19:30:34
Eccentricity: 0.0015545
inclination: 82.5369°
perigee height: 607 km
apogee height: 629 km
right ascension of ascending node: 172.7761°
argument of perigee: 302.2333°
revolutions per day: 14.83455873
mean anomaly at epoch: 57.7375°
orbit number at epoch: 76746

The dashed part of the orbit path shows where the satellite is in the earth's shadow,  

DLR